Participated 2 times
Between 1906 and 1907
Marcel Cadolle, France
Tour de France 2026 starts from Barcelona, Spain in

Stats and Facts from
Tour de France.

2026   2025   2024   2023  2022  2021  2020  2019   2018  2017   2016   2015  2014  2013   2012   2011  2010   2009   2008   2007   2006   2005   2004   2003   2002   2001   2000   1999   1998   1997  1996   1995   1994   1993   1992  1991   1990   1989   1988   1987   1986   1985   1984   1983  1982  1981   1980   1979  1978  1977   1976  1975  1974  1973   1972   1971   1970  1969   1968   1967   1966   1965  1964  1963   1962   1961   1960   1959   1958   1957  1956   1955   1954   1953   1952  1951  1950  1949   1948  1947  1939   1938   1937   1936   1935   1934   1933  1932   1931   1930  1929   1928   1927   1926  1925  1924  1923   1922   1921   1920   1919  1914   1913   1912   1911   1910  1909   1908   1907   1906  1905  1904   1903 

Tourstats
Sitemap

After stage 21 - 2025:
 16451 starters.
  5463 different riders.
  689 teams.
  2398 stages.
  470 restdays.
  466506.50 km.
  5925 abandoned riders.

Click map for 1951 route.
Facts from Tour de France 1951 Additional info and images from 1951.
  |   Stages.  |   Stage winners.  |   Days in jerseys.  |   Teams.  |   All riders.  |   All riders by age.  |   All riders from.  |  

  |   Rookies.  |   Withdrawls.  |   Average speed.  |   GC.  |   Polka  |   Green  |   White  |   Summits. (In tour)  |   Miscellaneous.  |  

Stage 7 on July 10th. 1951
Pick a stage:  1  2  3  4  5  6  7  8  9  10  11  12  13  14  15  16  17  18  19  20  21  22  23  24  

After stage 7:    Roger Leveque  
  La GuercheAngers | Dist: 85.00km. | Winner: Hugo Koblet

Podium

Average speed for all riders in stage:  37,109 km./hr.

1
 Hugo Koblet  Switzerland02h 05' 40"=40,584  km/h

2
 Louison Bobet  France02h 06' 39"+  00:00:59 =40,268  km/h

3
 Fausto Coppi  Italy02h 06' 44"+  00:01:04 =40,242  km/h

4  Fiorenzo Magni  Italy02h 08' 32"+  00:02:52 =39,678  km/h

5  Pierre Barbotin  France02h 09' 33"+  00:03:53 =39,367  km/h

6  Jean Goldschmit  Luxembourg02h 10' 43"+  00:05:03 =39,016  km/h

7  Gino Bartali  Italy02h 10' 54"+  00:05:14 =38,961  km/h

8  Serifano Biagioni  Italy02h 11' 21"+  00:05:41 =38,828  km/h

9  Raphaël Geminiani  France02h 11' 38"+  00:05:58 =38,744  km/h

10  Lucien Lazarides  France02h 11' 55"+  00:06:15 =38,661  km/h

11  Wout Wagtmans  Holland02h 12' 19"+  00:06:39 =38,544  km/h

12  Bernardo Ruíz  Spain02h 12' 24"+  00:06:44 =38,520  km/h

13  Georges Meunier  Ouest-Sud Ouest02h 12' 37"+  00:06:57 =38,457  km/h

14  Roger Decock  Belgium02h 13' 02"+  00:07:22 =38,336  km/h

15  Nello Lauredi  France02h 13' 07"+  00:07:27 =38,312  km/h

16  Roger Leveque  Ouest-Sud Ouest02h 13' 13"+  00:07:33 =38,283  km/h

17  André Rosseel  Belgium02h 13' 18"+  00:07:38 =38,260  km/h

18  Jean Diederich  Luxembourg02h 13' 24"+  00:07:44 =38,231  km/h

19  Gilbert Bauvin  Est-Sud Est02h 13' 31"+  00:07:51 =38,197  km/h

20  Wim van Est  Holland02h 13' 33"+  00:07:53 =38,188  km/h

20  Stan Ockers  Belgium02h 13' 33"+  00:07:53 =38,188  km/h

22  Alois Vansteenkiste  Belgium02h 14' 21"+  00:08:41 =37,961  km/h

23  Attilio Redolfi  Île-de-France02h 14' 26"+  00:08:46 =37,937  km/h

24  Andrea Carrea  Italy02h 14' 30"+  00:08:50 =37,918  km/h

24  Robert Castelin  Est-Sud Est02h 14' 30"+  00:08:50 =37,918  km/h

26  André Ruffet  Ouest-Sud Ouest02h 14' 35"+  00:08:55 =37,895  km/h

27  Robert Desbats  Ouest-Sud Ouest02h 14' 38"+  00:08:58 =37,881  km/h

28  Germain Derycke  Belgium02h 14' 46"+  00:09:06 =37,843  km/h

29  Louis Deprez  Île-de-France02h 15' 01"+  00:09:21 =37,773  km/h

30  Roger Buchonnet  Est-Sud Est02h 15' 27"+  00:09:47 =37,652  km/h

31  Georges Aeschlimann  Switzerland02h 15' 32"+  00:09:52 =37,629  km/h

32  Raoul Remy  France02h 15' 38"+  00:09:58 =37,601  km/h

33  Pierre Cogan  Ouest-Sud Ouest02h 15' 45"+  00:10:05 =37,569  km/h

34  Marcel Huber  Switzerland02h 15' 52"+  00:10:12 =37,537  km/h

34  Marcel De Mulder  Belgium02h 15' 52"+  00:10:12 =37,537  km/h

36  Robert Bintz  Luxembourg02h 16' 12"+  00:10:32 =37,445  km/h

37  Armand Baeyens  Belgium02h 16' 25"+  00:10:45 =37,385  km/h

37  Willy Kemp  Luxembourg02h 16' 25"+  00:10:45 =37,385  km/h

39  Jean Baldassari  France02h 16' 38"+  00:10:58 =37,326  km/h

40  Marcel Verschueren  Belgium02h 16' 57"+  00:11:17 =37,240  km/h

41  Franco Franchi  Italy02h 16' 58"+  00:11:18 =37,235  km/h

42  Virgilio Salimbeni  Italy02h 17' 02"+  00:11:22 =37,217  km/h

43  Luciano Pezzi  Italy02h 17' 03"+  00:11:23 =37,213  km/h

44  Adolphe Deledda  Est-Sud Est02h 17' 23"+  00:11:43 =37,122  km/h

45  Roger Creton  Île-de-France02h 17' 46"+  00:12:06 =37,019  km/h

46  Paul Giguet  Est-Sud Est02h 17' 48"+  00:12:08 =37,010  km/h

47  Jean-Marie Goasmat  Ouest-Sud Ouest02h 17' 51"+  00:12:11 =36,997  km/h

48  Eduard Van Ende  Belgium02h 17' 52"+  00:12:12 =36,992  km/h

49  Gino Sciardis  Île-de-France02h 17' 54"+  00:12:14 =36,983  km/h

50  Edouard Muller  France02h 17' 56"+  00:12:16 =36,974  km/h

51  Manuel Rodriguez  Spain02h 18' 12"+  00:12:32 =36,903  km/h

52  Vincent Vitetta  Est-Sud Est02h 18' 14"+  00:12:34 =36,894  km/h

53  Isidoor De Ryck  Belgium02h 18' 15"+  00:12:35 =36,890  km/h

53  Miguel Gual Bauza  Spain02h 18' 15"+  00:12:35 =36,890  km/h

55  Lucien Teisseire  France02h 18' 34"+  00:12:54 =36,805  km/h

56  Jean-Baptiste Dotto  Est-Sud Est02h 18' 35"+  00:12:55 =36,801  km/h

57  Gerrit Voorting  Holland02h 18' 40"+  00:13:00 =36,779  km/h

58  Dominique Forlini  Paris02h 18' 42"+  00:13:02 =36,770  km/h

59  Gerrit Peters  Holland02h 18' 47"+  00:13:07 =36,748  km/h

59  Andre Mahé  Ouest-Sud Ouest02h 18' 47"+  00:13:07 =36,748  km/h

61  Maurice Diot  Paris02h 19' 04"+  00:13:24 =36,673  km/h

62  Hilaire Couvreur  Belgium02h 19' 09"+  00:13:29 =36,651  km/h

62  Jean-Marie Cieliczka  Ouest-Sud Ouest02h 19' 09"+  00:13:29 =36,651  km/h

64  Sylvio Pedroni  Italy02h 19' 13"+  00:13:33 =36,634  km/h

65  Hans Sommer  Switzerland02h 19' 18"+  00:13:38 =36,612  km/h

66  Bernard Gauthier  France02h 19' 20"+  00:13:40 =36,603  km/h

67  Jean Gueguen  France02h 19' 23"+  00:13:43 =36,590  km/h

68  Joseph Morvan  Ouest-Sud Ouest02h 19' 29"+  00:13:49 =36,564  km/h

69  José Serra Gil  Spain02h 19' 53"+  00:14:13 =36,459  km/h

70  André Labeylie  Île-de-France02h 19' 54"+  00:14:14 =36,455  km/h

71  Jean Robic  Paris02h 20' 00"+  00:14:20 =36,429  km/h

72  Jacques Marinelli  Île-de-France02h 20' 03"+  00:14:23 =36,416  km/h

73  Dalmácio Langarica  Spain02h 20' 07"+  00:14:27 =36,398  km/h

74  Pierre Molineris  Est-Sud Est02h 20' 10"+  00:14:30 =36,385  km/h

75  Robert Bonnaventure  Paris02h 20' 20"+  00:14:40 =36,342  km/h

76  Ettore Milano  Italy02h 20' 32"+  00:14:52 =36,290  km/h

77  Jean-Apotre Lazarides  France02h 20' 45"+  00:15:05 =36,234  km/h

78  Louis Caput  Paris02h 21' 11"+  00:15:31 =36,123  km/h

79  Raymond Guegan  Ouest-Sud Ouest02h 21' 13"+  00:15:33 =36,115  km/h

80  Francisco Masip  Spain02h 21' 16"+  00:15:36 =36,102  km/h

80  Alois De Hertog  Belgium02h 21' 16"+  00:15:36 =36,102  km/h

82  Jean-Louis Carle  Paris02h 21' 26"+  00:15:46 =36,059  km/h

83  Jean Delahaye  Île-de-France02h 21' 37"+  00:15:57 =36,013  km/h

84  Gottfried Weilenmann  Switzerland02h 21' 53"+  00:16:13 =35,945  km/h

85  Jean Mayen  North Africa02h 22' 14"+  00:16:34 =35,857  km/h

86  Roger Walkowiak  Ouest-Sud Ouest02h 22' 20"+  00:16:40 =35,831  km/h

86  Emile Baffert  Est-Sud Est02h 22' 20"+  00:16:40 =35,831  km/h

86  Pierre Brambilla  Est-Sud Est02h 22' 20"+  00:16:40 =35,831  km/h

89  Victorio Ruiz Garcia  Spain02h 22' 24"+  00:16:44 =35,815  km/h

90  Leo Weilenmann  Switzerland02h 22' 50"+  00:17:10 =35,706  km/h

91  Angelo Colinelli  Est-Sud Est02h 22' 51"+  00:17:11 =35,702  km/h

92  Roger Piel  Paris02h 22' 54"+  00:17:14 =35,689  km/h

93  Hans Dekkers  Holland02h 23' 18"+  00:17:38 =35,590  km/h

94  Henri Kass  Luxembourg02h 23' 36"+  00:17:56 =35,515  km/h

95  Serge Blusson  Paris02h 23' 52"+  00:18:12 =35,449  km/h

96  Giuseppe Mirando  Est-Sud Est02h 24' 15"+  00:18:35 =35,355  km/h

97  Marcel Michel  Paris02h 24' 16"+  00:18:36 =35,351  km/h

98  Henk Faanhof  Holland02h 24' 24"+  00:18:44 =35,319  km/h

99  Abdel-Kader Zaaf  North Africa02h 24' 27"+  00:18:47 =35,306  km/h


Withdrawls: 12
 RiderTeamReason
18   Attilio Lambertini ItalyExceeded time limit
24   Renzo Zanazzi ItalyExceeded time limit
51   René Biever LuxembourgExceeded time limit
58   Wim Dielissen HollandExceeded time limit
77   Robert Chapatte ParisExceeded time limit
85   José Beyaert Île-de-FranceExceeded time limit
91   Lucien Maelfait Île-de-FranceExceeded time limit
94   Roger Queugnet Île-de-FranceExceeded time limit
123   Marcel Fernandez North AfricaExceeded time limit
124   Ahmed Kebaïli North AfricaExceeded time limit
126   Vincent Soler North AfricaExceeded time limit
128   Marcel Zelasco North AfricaExceeded time limit
Todays birthdays.

1869 • Adolphe Dorion
1884 • Achille Germain
1886 • Emile Eigeldinger
1896 • Andre Léger
1907 • Frans Dictus
1921 • Alberto Ghirardi
1934 • Joseph Planckaert
1945 • Leif Mortensen
1952 • Alex Van Linden
1960 • Roberto Bressan
1960 • Bernard Chesneau
1962 • Paul Watson
1963 • Juan Rozas
1965 • Jean-Pierre Heynderickx
1967 • José-Manuel Oliveira
1970 • Wilfried Nelissen
1980 • Nick Nuyens
1996 • Jai Hindley

 

Optimized for Chrome - Edge
and Opera browsers.